Find Beidou DW 21

NORAD ID: 41315 Int'l Des: 2016-006 Owner: CNSA Country: CN Constellation: BeiDou operational
MEOCIRCULAR

当前视图

正在加载3D地球...

关于 Beidou DW 21

正在加载描述...

即将过境

Passes for default location (London). Set your location on the main map for personalized predictions.

高度历史

Loading altitude history...

两行轨道根数

1 41315U 16006A 26148.16473770 -.00000090 00000-0 00000+0 0 9992
2 41315 56.6904 64.2970 0004421 308.9911 50.9606 1.86230804 70225
Epoch: May 28, 2026 • Age: 91 hours

当前状态

高度 21521.6 km
速度 3.78 km/s
星下点 7.64°N, 157.56°W
发射日期 Feb 1, 2016
运行时间 10.3 years
类型 navigation

技术详情

分类 Payload
质量 1014.00 kg
干质量 850.00 kg
总质量 1014.00 kg
长度 2.20 m
直径 1.70 m
跨度 10.00 m
形状 Box + 2 Pan
制造商 SECM
平台类型 BD-3M2
阶段状态 In Orbit
所有者/国家 CNSA/CN

Most Searched